Find Global-16

NORAD ID: 49950 Int'l Des: 2021-120 Owner: BSKG Country: US operational
LEOCIRCULAR

リアルタイム位置

3D地球を読み込み中...

Global-16について

説明を読み込み中...

次回通過

Passes for default location (London). Set your location on the main map for personalized predictions.

高度履歴

Loading altitude history...

軌道要素

1 49950U 21120B 26107.22684286 .00014719 00000-0 28510-3 0 9998
2 49950 41.9960 54.3638 0010192 185.9758 174.0964 15.47403423245390
Epoch: Apr 17, 2026 • Age: 14 hours

現在のステータス

高度 435.3 km
速度 7.65 km/s
衛星直下点 -27.40°S, 117.87°W
打ち上げ日 Dec 9, 2021
運用期間 4.3 years
タイプ earth observation

技術仕様

分類 Payload
質量 55.00 kg
乾燥質量 50.00 kg
総質量 55.00 kg
長さ 1.00 m
直径 0.50 m
スパン 1.00 m
形状 Box
製造者 LEOSTL
バスタイプ BSky
フェーズステータス In Orbit
所有者/国 BSKG/US

Most Searched